Flag for Finland Weather past 2 weeks in Helsinki, Finland

Now
57 °F

Passing clouds.


Feels Like: 56 °F
Forecast: 54 / 67 °F
Wind: 6 mph from Southwest

Location: Helsinki Malmi Airport

Current Time: Aug 3, 2015 at 7:42:11 AM

Latest Report: Aug 3, 2015 at 6:50 AM


Visibility: N/A

Pressure: 29.98 "Hg

Humidity: 82%

Dew point: 52 °F

Location of HelsinkiLocation

Historic Weather in Helsinki — Graph

°F

Helsinki temperature yesterday

Maximum temperature yesterday: 66 °F (at 12:20 PM)
Minimum temperature yesterday: 50 °F (at 4:50 AM)
Average temperature yesterday: 60 °F

Past Weeks' High & Low Weather Summary

 TemperatureHumidityPressure
High70 °F (Jul 21, 1:20 PM)100% (Jul 20, 1:50 AM)30.04 "Hg (Jul 20, 1:50 AM)
Low45 °F (Jul 28, 5:20 AM)43% (Aug 1, 1:50 PM)29.47 "Hg (Jul 22, 9:50 AM)
Average60 °F78%29.68 "Hg
* Reported Jul 19 6:20 AM — Aug 3 6:20 AM, Helsinki, Weather by CustomWeather, © 2015

Note: Actual official high and low records may vary slightly from our data, if they occured in-between our weather recording intervals... More about our weather records

Advertising

Helsinki weather history for previous 24 hours

 ConditionsComfort  
Time TempWeatherWind HumidityBarometerVisibility
6:20 AM
Mon, Aug 3
57 °FPassing clouds.5 mph88%29.98 "HgN/A
5:50 AM55 °FPassing clouds.5 mph94%29.98 "HgN/A
5:20 AM57 °FClear.3 mph88%29.98 "Hg10 mi
4:50 AM57 °FPassing clouds.5 mph88%29.98 "HgN/A
4:20 AM57 °FClear.3 mph88%29.98 "Hg10 mi
3:50 AM57 °FClear.3 mph88%29.98 "Hg10 mi
3:20 AM57 °FClear.3 mph88%29.98 "Hg10 mi
2:50 AM57 °FPassing clouds.6 mph88%29.98 "HgN/A
2:20 AM57 °FPassing clouds.6 mph88%29.98 "HgN/A
1:50 AM57 °FPassing clouds.7 mph88%29.98 "HgN/A
1:20 AM57 °FPassing clouds.7 mph88%29.98 "HgN/A
12:20 AM59 °FPassing clouds.8 mph82%29.98 "HgN/A
11:50 PM
Sun, Aug 2
59 °FPassing clouds.8 mph82%29.98 "HgN/A
11:20 PM59 °FPassing clouds.7 mph82%29.98 "HgN/A
10:50 PM59 °FPassing clouds.7 mph88%30.01 "HgN/A
10:20 PM59 °FScattered clouds.7 mph88%30.01 "HgN/A
9:50 PM59 °FScattered clouds.8 mph82%29.98 "HgN/A
9:20 PM61 °FPartly sunny.10 mph77%29.98 "HgN/A
8:50 PM61 °FPassing clouds.10 mph77%30.01 "HgN/A
8:20 PM61 °FScattered clouds.12 mph72%30.01 "HgN/A
7:50 PM63 °FScattered clouds.10 mph68%30.01 "HgN/A
7:20 PM63 °FScattered clouds.12 mph64%30.01 "HgN/A
6:50 PM63 °FScattered clouds.14 mph68%30.01 "HgN/A
6:20 PM66 °FPassing clouds.13 mph60%30.01 "HgN/A
5:50 PM66 °FPassing clouds.10 mph60%30.01 "HgN/A
5:20 PM66 °FPassing clouds.17 mph60%30.04 "HgN/A
4:50 PM66 °FScattered clouds.16 mph56%30.04 "HgN/A
4:20 PM64 °FPartly sunny.15 mph68%30.04 "HgN/A
3:50 PM64 °FPartly sunny.15 mph68%30.04 "HgN/A
3:20 PM64 °FPartly sunny.15 mph73%30.04 "HgN/A
2:50 PM66 °FBroken clouds.12 mph73%30.04 "HgN/A
2:20 PM66 °FBroken clouds.10 mph73%30.04 "HgN/A
1:50 PM64 °FBroken clouds.13 mph78%30.04 "HgN/A
1:20 PM66 °FBroken clouds.13 mph68%30.04 "HgN/A
12:50 PM66 °FBroken clouds.13 mph68%30.04 "HgN/A
12:20 PM66 °FBroken clouds.13 mph68%30.04 "HgN/A
11:50 AM64 °FPartly sunny.10 mph73%30.04 "HgN/A
11:20 AM64 °FPartly sunny.10 mph73%30.04 "HgN/A
10:50 AM64 °FPartly sunny.12 mph73%30.01 "HgN/A
10:20 AM64 °FPassing clouds.10 mph64%30.01 "HgN/A
9:50 AM64 °FPassing clouds.8 mph68%30.01 "HgN/A
9:20 AM64 °FPassing clouds.8 mph68%30.01 "HgN/A
8:50 AM63 °FPassing clouds.6 mph68%30.01 "HgN/A
8:20 AM61 °FPassing clouds.6 mph77%30.01 "HgN/A
7:50 AM59 °FPassing clouds.7 mph77%30.01 "HgN/A
7:20 AM59 °FPassing clouds.5 mph77%30.01 "HgN/A
Weather by CustomWeather, © 2015

See weather overviewHow to use our weather pages